ゲーレルス第3彗星

82P/Gehrels 3 (2010)

English version
Home page
Total 6,336 html files since Dec. 4, 1995
Updated on October 15, 2008

---------------------------------------------------------------------

・ プロフィール

・ 軌道要素

The following orbital elements are taken from MPC 59598:

Epoch 2010 Jan. 4.0 TT = JDT 2455200.5
T 2010 Jan. 12.0814 TT                                  MPC
q   3.633375             (2000.0)            P               Q
n   0.1170339      Peri.  226.2674      -0.2717804      -0.9622103
a   4.139313       Node   239.5100      +0.8884999      -0.2441220
e   0.122228       Incl.    1.1261      +0.3697341      -0.1206476
P   8.42
From 101 observations 1975-2002, mean residual 0".7.

・ 光度変化

        m1 = 6.5 + 5 logΔ + 20.0 log r

---------------------------------------------------------------------

軌道要素はMPCのEphemerides and Orbital Elementsに掲載されたものです。
光度グラフはComet for Windowsで作成したものです。

---------------------------------------------------------------------

Copyright(C) 1995-2008 Seiichi Yoshida (comet@aerith.net). All rights reserved.